Regional Weather Roundup
Issued by NWS

Home | Current Version | Previous Version | Text Only | Print | Product List | Glossary Off
Versions: 1 2 3 4 5 6 7 8 9 10 11 12 13 14 15 16 17 18 19 20 21 22 23 24 25 26 27 28 29 30 31 32 33 34 35 36 37 38 39 40 41 42 43 44 45 46 47 48 49 50

000
ASUS43 KOAX 022302
RWRNE

WEATHER ROUNDUP FOR NEBRASKA
NATIONAL WEATHER SERVICE OMAHA NE
600 PM CDT SUN AUG 02 2015

NOTES: SATELLITE DATA IS BEING USED TO AUGMENT CLOUD COVER ABOVE
       12000 FEET.
       "FAIR" INDICATES FEW OR NO CLOUDS BELOW 12,000 FEET WITH NO
       SIGNIFICANT WEATHER AND/OR OBSTRUCTIONS TO VISIBILITY.

  * THESE STATIONS DO NOT REPORT WEATHER SUCH AS RAIN...SNOW OR FOG.

NEZ001>004-019>022-054>056-030000-
NEBRASKA PANHANDLE

CITY           SKY/WX    TMP DP  RH WIND       PRES   REMARKS
SCOTTSBLUFF    MOSUNNY   91  51  25 E12       29.97R
ALLIANCE       MOSUNNY   93  49  22 W10       29.96F HX  90
CHADRON        SUNNY     92  56  29 NE15G22   29.93F HX  90
KIMBALL        PTSUNNY   86  48  26 NE13      30.04R
SIDNEY         CLOUDY    87  47  24 S12       30.02R
$$

NEZ057>060-069>072-079>082-030000-
SOUTHWEST NEBRASKA

CITY           SKY/WX    TMP DP  RH WIND       PRES   REMARKS
NORTH PLATTE   LGT RAIN  79  55  43 W12G17    29.94R
IMPERIAL       CLOUDY    94  54  25 E9        29.92S HX  92
LEXINGTON      CLOUDY    82  56  40 SW10      29.94R
MCCOOK         PTSUNNY   86  54  33 NE28G39   29.90R
$$

NEZ005>010-023>029-035>040-094-030000-
NORTH CENTRAL NEBRASKA

CITY           SKY/WX    TMP DP  RH WIND       PRES   REMARKS
BROKEN BOW     CLOUDY    83  60  45 SE8       29.93R
ORD            PTSUNNY   81  72  74 W10       29.88R
$$

NEZ041-046>049-061>064-073>077-083>087-030000-
SOUTH CENTRAL NEBRASKA

CITY           SKY/WX    TMP DP  RH WIND       PRES   REMARKS
GRAND ISLAND   CLOUDY    85  73  67 SW6       29.86S HX  91
AURORA         CLOUDY    86  74  68 SW3       29.86R HX  93
HASTINGS       CLOUDY    87  76  69 CALM      29.86S HX  97
KEARNEY *      CLOUDY    88  50  27 N12       29.91R
YORK           CLOUDY    84  79  84 CALM      29.84F HX  96
$$

NEZ011>018-030>034-042>045-030000-
NORTHEAST NEBRASKA

CITY           SKY/WX    TMP DP  RH WIND       PRES   REMARKS
NORFOLK        SUNNY     91  61  36 N10       29.84R HX  91
BLAIR          MOSUNNY   88  73  61 NW7       29.81S HX  96
COLUMBUS *     MOSUNNY   90  73  58 N7        29.81S HX  98
TEKAMAH        SUNNY     91  76  61 NW7       29.80S HX 103
$$

NEZ050>053-065>068-078-088>093-030000-
SOUTHEAST NEBRASKA

CITY           SKY/WX    TMP DP  RH WIND       PRES   REMARKS
LINCOLN        MOSUNNY   92  73  53 SW10      29.81F HX 100
OMAHA EPPLEY   MOSUNNY   91  76  61 N14       29.78S HX 103
FALLS CITY     SUNNY     89  74  60 SW9       29.82F HX  98
$$

NEZ044-045-051>053-067-030000-
OMAHA AREA

CITY           SKY/WX    TMP DP  RH WIND       PRES   REMARKS
OMAHA EPPLEY   MOSUNNY   91  76  61 N14       29.78S HX 103
BLAIR          MOSUNNY   88  73  61 NW7       29.81S HX  96
$$



USA.gov is the U.S. government's official web portal to all federal, state and local government web resources and services.